Regional Weather Roundup
Issued by NWS

Home | Current Version | Previous Version | Graphics & Text | Print | Product List | Glossary On
Versions: 1 2 3 4 5 6 7 8 9 10 11 12 13 14 15 16 17 18 19 20 21 22 23 24 25 26 27 28 29 30 31 32 33 34 35 36 37 38 39 40 41 42 43 44 45 46 47 48 49 50
328
ASUS43 KFSD 301802
RWRSD

WEATHER ROUNDUP FOR SOUTH DAKOTA
NATIONAL WEATHER SERVICE SIOUX FALLS SD
100 PM CDT THU MAR 30 2017

NOTE: "FAIR" INDICATES FEW OR NO CLOUDS BELOW 12,000 FEET WITH NO
SIGNIFICANT WEATHER AND/OR OBSTRUCTIONS TO VISIBILITY.


SDZ001>005-009-010-012>017-301900-
NORTHWEST AND NORTH CENTRAL SOUTH DAKOTA

CITY           SKY/WX    TMP DP  RH WIND       PRES   REMARKS
BUFFALO          N/A     56  40  55 SE14      29.66F
FAITH            N/A     43  38  82 S20       29.77F
MOBRIDGE       CLOUDY    46  35  65 S13       29.83S
$$

SDZ012>016-024>037-041>051-057-063-072>074-301900-
SOUTHWEST AND SOUTH CENTRAL SOUTH DAKOTA

CITY           SKY/WX    TMP DP  RH WIND       PRES   REMARKS
RAPID CTY ARPT CLOUDY    48  39  71 SE15      29.75F
PIERRE         CLOUDY    41  34  76 SE10      29.84F
CUSTER         CLOUDY    46  33  60 VRB5      29.74F
PHILIP         CLOUDY    43  37  79 SE12      29.81F
PINE RIDGE     CLOUDY    51  35  54 SE10      29.76F
SPEARFISH      FAIR      48  41  76 NE7       29.73S
WINNER         CLOUDY    42  35  76 SE5       29.85S
$$

SDZ004>011-016>023-039-040-301900-
NORTHEAST SOUTH DAKOTA

CITY           SKY/WX    TMP DP  RH WIND       PRES   REMARKS
ABERDEEN       CLOUDY    43  33  68 E6        29.88F
WATERTOWN      CLOUDY    40  36  86 VRB6      29.85F
BROOKINGS      CLOUDY    40  36  86 E10       29.83F
$$

SDZ017-020-022-023-036>040-048>070-301900-
SOUTHEAST SOUTH DAKOTA

CITY           SKY/WX    TMP DP  RH WIND       PRES   REMARKS
SIOUX FALLS    CLOUDY    43  38  82 NE13      29.81F
HURON          CLOUDY    45  36  70 VRB3      29.86F
CHAMBERLAIN    CLOUDY    46  37  71 CALM      29.84F
MITCHELL       CLOUDY    47  36  65 NE9       29.84F
YANKTON        CLOUDY    43  37  81 N12       29.81F
$$

ABBREVIATIONS USED IN REMARKS
   TC - TEMPERATURE IN CELSIUS
  WCI - WIND CHILL INDEX
   HX - HEAT INDEX
  VSB - VISIBILITY





USA.gov is the U.S. government's official web portal to all federal, state and local government web resources and services.